Location: Home
(42.5358°N, 72.7383°W)
Time: 12:19:09
(UTC-05:00)

Explorer 7 - Pass Details

Date: 07 December 2021
Orbit: 483 x 674 km, 50.3° (Epoch: 19 January)

Event Time Altitude Azimuth Distance (km) Brightness Sun altitude
Exits shadow 03:40:41 12° 73° (ENE) 1,755 10.0 -37.2°
Drops below altitude 10° 03:41:05 10° 71° (ENE) 1,897 10.2 -37.1°
Sets 03:43:18 0° 64° (ENE) 2,743 11.2 -36.7°
